TimePST,TemperatureF,Dew PointF,Humidity,Sea Level PressureIn,VisibilityMPH,Wind Direction,Wind SpeedMPH,Gust SpeedMPH,PrecipitationIn,Events,Conditions,WindDirDegrees,DateUTC
12:52 AM,44.1,28.0,53,30.01,-9999.0,NE,5.8,-,N/A,,Unknown,50,2012-11-07 08:52:00
1:52 AM,43.0,27.0,53,30.01,-9999.0,NE,6.9,-,N/A,,Unknown,50,2012-11-07 09:52:00
2:52 AM,44.1,27.0,51,29.99,-9999.0,NE,5.8,-,N/A,,Unknown,50,2012-11-07 10:52:00
3:52 AM,44.1,27.0,51,29.99,-9999.0,NE,6.9,-,N/A,,Unknown,50,2012-11-07 11:52:00
4:52 AM,43.0,26.1,51,30.01,-9999.0,NE,6.9,-,N/A,,Unknown,40,2012-11-07 12:52:00
5:52 AM,43.0,26.1,51,30.03,-9999.0,NE,5.8,-,N/A,,Unknown,50,2012-11-07 13:52:00
6:52 AM,46.0,27.0,47,30.04,-9999.0,NE,6.9,-,N/A,,Unknown,50,2012-11-07 14:52:00
7:52 AM,59.0,30.0,33,30.03,-9999.0,Calm,Calm,-,N/A,,Unknown,0,2012-11-07 15:52:00
8:52 AM,69.1,28.9,22,30.01,-9999.0,Calm,Calm,-,N/A,,Unknown,0,2012-11-07 16:52:00
9:52 AM,77.0,25.0,15,29.98,-9999.0,SW,4.6,-,N/A,,Unknown,220,2012-11-07 17:52:00
10:52 AM,79.0,21.9,12,29.96,-9999.0,WSW,10.4,16.1,N/A,,Unknown,250,2012-11-07 18:52:00
11:52 AM,80.1,27.0,14,29.94,-9999.0,SW,17.3,24.2,N/A,,Unknown,230,2012-11-07 19:52:00
12:52 PM,79.0,28.0,15,29.93,-9999.0,SW,12.7,-,N/A,,Unknown,220,2012-11-07 20:52:00
1:52 PM,79.0,26.1,14,29.91,-9999.0,West,9.2,-,N/A,,Unknown,280,2012-11-07 21:52:00
2:52 PM,77.0,33.1,20,29.91,-9999.0,SW,10.4,-,N/A,,Unknown,220,2012-11-07 22:52:00
3:52 PM,73.0,41.0,31,29.91,-9999.0,SW,13.8,-,N/A,,Unknown,220,2012-11-07 23:52:00
4:52 PM,66.0,42.1,42,29.93,-9999.0,SW,6.9,-,N/A,,Unknown,230,2012-11-08 00:52:00
5:52 PM,63.0,44.1,50,29.94,-9999.0,Calm,Calm,-,N/A,,Unknown,0,2012-11-08 01:52:00
6:52 PM,51.1,36.0,56,29.96,-9999.0,Calm,Calm,-,N/A,,Unknown,0,2012-11-08 02:52:00
7:52 PM,50.0,37.0,61,29.94,-9999.0,NNE,5.8,-,N/A,,Unknown,30,2012-11-08 03:52:00
8:52 PM,46.9,36.0,66,29.94,-9999.0,NE,5.8,-,N/A,,Unknown,50,2012-11-08 04:52:00
9:52 PM,44.1,35.1,71,29.94,-9999.0,ENE,4.6,-,N/A,,Unknown,60,2012-11-08 05:52:00
10:52 PM,41.0,33.1,73,29.94,-9999.0,ENE,5.8,-,N/A,,Unknown,60,2012-11-08 06:52:00
11:52 PM,43.0,34.0,71,29.92,-9999.0,NE,5.8,-,N/A,,Unknown,50,2012-11-08 07:52:00